BAW066 EGLL-LXGB

Flight info

Callsign BAW066
Flight time N/A
Altitude 37000
Route GASGU2J GASGU N866 SAM M195 MARUK N621 LELNA DCT ERCOZ DCT NOVAN DCT DELOG DCT CRISA DCT VULPE DCT MAR N864 PIMOS DCT
Aircraft A320/M-SDE3FGHIRWY/LB1

Departure

Time N/A
Airport London Heathrow Airport (EGLL)

Arrival

Time 2026-04-29 18:36
Airport Gibraltar Airport (LXGB)
Time Latitude Longitude Altitude Speed Heading
2026-04-29 18:36 36.15831 -5.13555 10 ft 0 kts 268°
2026-04-29 18:36 36.15734 -5.15249 471 ft 225 kts 259°
2026-04-29 18:37 36.15534 -5.16956 768 ft 183 kts 261°
2026-04-29 18:37 36.15434 -5.18400 1034 ft 152 kts 265°
2026-04-29 18:37 36.15385 -5.19592 1108 ft 135 kts 266°
2026-04-29 18:37 36.15336 -5.20999 1271 ft 194 kts 266°
2026-04-29 18:38 36.15213 -5.22867 1645 ft 240 kts 259°
2026-04-29 18:38 36.14467 -5.24873 2100 ft 282 kts 228°
2026-04-29 18:38 36.12576 -5.25886 2311 ft 319 kts 183°
2026-04-29 18:38 36.10420 -5.25112 2133 ft 338 kts 149°
2026-04-29 18:39 36.08642 -5.23140 2148 ft 345 kts 136°
2026-04-29 18:39 36.06944 -5.20965 2600 ft 349 kts 135°
2026-04-29 18:39 36.05416 -5.18931 3116 ft 293 kts 134°
2026-04-29 18:39 36.04488 -5.17145 3896 ft 202 kts 111°
2026-04-29 18:40 36.04628 -5.15683 4507 ft 169 kts 57°
2026-04-29 18:40 36.05672 -5.15194 4914 ft 174 kts 336°
2026-04-29 18:40 36.06330 -5.16380 4789 ft 181 kts 288°
2026-04-29 18:40 36.06952 -5.17716 4484 ft 177 kts 301°
2026-04-29 18:41 36.09252 -5.20819 3891 ft 150 kts 307°
2026-04-29 18:41 36.09912 -5.21792 3721 ft 147 kts 303°
2026-04-29 18:42 36.10495 -5.22815 3544 ft 144 kts 298°
2026-04-29 18:42 36.11028 -5.23847 3437 ft 140 kts 300°
2026-04-29 18:42 36.11717 -5.24676 3366 ft 138 kts 320°
2026-04-29 18:42 36.12549 -5.25330 3101 ft 148 kts 323°
2026-04-29 18:43 36.13338 -5.26166 2734 ft 150 kts 304°
2026-04-29 18:43 36.13903 -5.27247 2275 ft 149 kts 297°
2026-04-29 18:43 36.14440 -5.28339 1795 ft 147 kts 298°
2026-04-29 18:43 36.14939 -5.29436 1281 ft 146 kts 295°
2026-04-29 18:44 36.15266 -5.30611 784 ft 145 kts 274°
2026-04-29 18:44 36.15208 -5.31826 470 ft 138 kts 265°
2026-04-29 18:44 36.15210 -5.32954 305 ft 125 kts 263°
2026-04-29 18:44 36.15155 -5.34007 83 ft 119 kts 263°
2026-04-29 18:45 36.15119 -5.34937 24 ft 95 kts 267°
2026-04-29 18:45 36.15102 -5.35386 24 ft 37 kts 266°
2026-04-29 18:45 36.15095 -5.35662 19 ft 20 kts 266°
2026-04-29 18:45 36.15093 -5.35729 18 ft 2 kts
2026-04-29 18:46 36.15097 -5.35699 19 ft 8 kts 80°
2026-04-29 18:46 36.15102 -5.35593 22 ft 15 kts 87°
2026-04-29 18:46 36.15107 -5.35443 23 ft 19 kts 88°
2026-04-29 18:46 36.15112 -5.35262 24 ft 24 kts 88°
2026-04-29 18:47 36.15116 -5.35067 24 ft 17 kts 86°
2026-04-29 18:47 36.15125 -5.34896 23 ft 23 kts 86°
2026-04-29 18:47 36.15131 -5.34775 22 ft 10 kts 86°
2026-04-29 18:47 36.15161 -5.34682 21 ft 14 kts 15°
2026-04-29 18:48 36.15215 -5.34678 21 ft 6 kts
2026-04-29 18:48 36.15247 -5.34673 18 ft 1 kts
2026-04-29 18:48 36.15251 -5.34689 19 ft 3 kts 261°
2026-04-29 18:48 36.15265 -5.34714 17 ft 5 kts 326°
2026-04-29 18:49 36.15296 -5.34720 17 ft 3 kts 357°
2026-04-29 18:49 36.15302 -5.34720 17 ft 0 kts